RH
6 4 3 2 2 2 1 2 2 2 2 2 2 2 2 2 2 3 3 3 3 3 3 3 2 2 2 2 2 2 2 2 2 2 3 3 3 3 4 4 4 4 5 5 5 5 5 5 5 5 5 5 5 5 5 5 6 6 5 10 17 19 21 22 22 22 22 19 14 8 7 9 8 9 10 10 10 11 11 11 12 11 11 12 13 13 13 13
11 7 4 2 2 2 2 2 2 2 2 2 2 2 2 2 3 3 3 3 3 3 3 3 3 2 2 2 2 2 2 2 2 3 3 3 3 4 4 4 4 4 5 5 5 5 5 5 5 5 6 6 6 5 6 6 6 6 6 8 12 15 19 21 22 22 19 15 10 8 9 9 10 10 10 10 11 12 11 12 12 12 13 14 14 14 14 14
14 12 11 9 6 3 2 2 2 2 2 2 2 2 3 2 2 2 2 3 3 3 3 3 3 3 2 2 2 2 2 2 3 3 3 3 3 3 4 4 4 4 5 5 5 5 5 5 6 6 6 6 6 6 6 6 6 6 6 6 9 12 15 17 17 15 12 9 8 9 10 10 11 11 11 12 12 12 12 12 13 13 15 15 15 15 15 15
20 19 21 21 17 11 7 6 6 6 6 6 8 10 10 9 8 6 5 5 5 4 4 4 3 3 3 2 2 2 3 3 3 3 3 3 3 3 4 4 4 5 5 5 5 5 6 6 6 6 6 6 6 6 6 6 7 7 7 7 8 9 10 10 10 9 8 9 9 10 10 11 12 12 13 12 12 13 13 13 14 14 15 16 15 15 15 15
26 26 29 32 30 26 22 21 20 19 18 18 19 20 19 19 17 14 11 10 10 8 8 7 5 4 3 3 3 2 2 3 5 5 4 3 3 4 4 4 5 5 5 5 6 6 6 6 6 6 6 7 6 7 7 7 7 8 8 8 8 8 8 9 9 9 9 10 10 10 11 12 12 12 13 13 13 14 13 14 14 14 15 15 15 14 14 14
35 33 34 36 36 36 34 34 33 32 31 29 27 26 25 24 23 22 19 17 15 13 12 11 10 8 4 3 3 3 3 3 5 5 4 4 3 4 4 5 5 5 6 6 6 6 7 6 7 7 7 7 7 8 8 8 8 8 8 8 8 9 9 10 10 10 10 10 11 12 12 12 12 12 13 13 14 14 14 15 14 14 14 13 13 13 14 14
45 42 40 39 38 37 38 37 37 37 36 32 29 28 27 26 24 23 21 19 18 16 15 13 13 12 8 5 3 4 4 3 4 4 4 4 4 4 4 5 5 6 6 6 7 7 7 7 7 7 7 8 8 8 8 8 8 9 9 9 9 10 10 11 11 11 11 12 12 12 12 12 12 12 12 13 15 15 15 15 15 14 13 13 14 14 15 15
51 44 39 42 42 40 39 38 40 39 38 36 32 31 31 30 29 26 22 18 15 13 12 11 10 10 9 7 5 4 4 4 5 4 4 4 4 5 5 5 6 6 6 7 7 7 8 8 8 8 8 8 9 9 9 9 9 10 11 10 10 10 11 11 11 12 12 13 12 11 12 12 12 12 13 14 16 16 15 16 15 13 13 14 15 16 16 16
46 40 34 37 42 43 40 39 42 39 39 40 38 37 36 36 36 34 33 28 22 17 11 9 8 7 7 7 7 6 6 7 7 5 4 4 5 5 5 6 6 6 6 7 8 8 8 8 8 8 9 9 9 9 9 9 10 11 11 10 11 11 11 12 12 13 13 12 11 11 12 12 12 13 14 16 16 15 15 16 15 14 14 14 16 16 17 17
33 33 29 27 33 38 36 37 41 39 40 41 39 37 35 35 35 35 36 36 33 28 21 15 9 6 5 5 5 6 7 8 7 6 5 4 5 5 6 6 6 6 7 7 8 9 9 9 9 9 9 9 9 9 9 10 10 10 10 10 11 10 11 12 11 13 14 12 11 11 11 12 12 13 15 16 16 16 16 16 15 14 14 15 17 17 18 19
26 26 26 24 26 28 31 37 42 41 41 41 38 35 32 31 32 33 34 35 35 33 28 21 13 7 5 5 5 5 7 7 6 6 5 5 5 5 7 7 7 7 7 8 9 9 9 9 9 10 10 9 9 9 9 10 9 9 9 9 10 12 13 12 12 13 13 12 11 11 10 11 13 13 15 16 17 16 16 17 16 14 16 17 18 19 19 19
29 27 26 26 26 25 29 38 40 38 39 40 37 35 34 33 33 35 36 35 35 34 30 23 15 8 4 4 5 4 5 5 5 6 5 5 6 6 7 7 7 8 8 9 9 10 9 9 9 9 9 9 8 9 10 9 8 8 8 11 13 14 14 13 12 13 13 14 13 13 11 11 14 14 15 17 17 16 16 18 16 15 17 20 20 21 20 19
40 37 34 31 30 28 30 34 34 35 36 36 36 35 35 35 36 37 37 36 35 35 33 25 14 7 5 5 5 5 5 5 5 6 6 6 7 7 7 7 8 8 8 9 10 10 9 9 9 9 9 8 8 8 9 8 7 8 10 14 16 16 15 12 12 12 12 15 15 15 13 11 14 15 15 18 18 17 17 18 16 18 21 22 23 22 20 21
42 43 43 41 39 36 33 32 33 34 34 35 35 35 36 36 36 38 38 36 36 35 33 27 16 7 5 5 5 5 5 5 6 6 6 7 7 7 8 8 8 9 9 9 10 9 9 8 8 8 8 7 8 8 9 9 7 9 14 17 17 16 14 12 12 12 12 15 14 16 16 12 13 16 16 19 20 20 20 18 18 21 25 25 24 23 22 22
37 38 41 43 45 46 43 40 37 35 35 35 35 35 36 37 38 39 39 37 36 34 31 27 16 7 5 5 5 6 6 6 6 6 7 7 8 8 8 8 9 9 9 9 10 9 8 8 8 8 8 8 8 9 9 9 9 12 16 16 15 15 13 11 12 12 13 15 14 17 18 14 13 16 17 19 20 20 21 20 21 24 28 27 25 24 24 23
39 39 40 42 45 47 49 49 46 42 39 35 34 35 36 37 39 40 40 38 35 32 29 23 13 6 5 5 6 7 7 7 7 7 7 8 9 9 9 9 9 10 10 10 9 9 9 8 9 8 8 9 9 10 10 10 11 14 14 12 12 13 12 12 12 13 14 15 15 17 18 15 15 17 18 20 21 21 21 22 25 28 29 27 26 25 25 25
45 45 45 45 46 47 49 51 51 48 44 35 28 29 35 39 40 41 40 37 34 32 29 23 13 7 7 6 7 8 7 7 8 8 8 9 9 9 10 10 10 10 9 10 9 9 9 9 9 9 9 9 10 11 12 11 12 13 13 12 13 13 13 13 13 14 15 16 17 17 19 17 16 18 19 20 21 21 22 24 27 29 29 28 27 27 26 26
48 49 50 48 47 46 45 46 48 49 47 41 31 25 28 33 37 39 37 33 32 30 26 20 14 9 9 11 11 10 9 8 8 9 9 9 9 10 10 10 10 10 9 10 10 10 10 10 10 9 9 9 10 13 13 12 12 13 14 14 13 13 14 13 14 15 16 17 17 18 20 18 17 19 20 21 22 22 22 24 26 29 30 29 28 28 28 27
52 53 52 51 51 47 42 41 43 43 43 44 38 30 28 30 34 36 34 32 29 25 22 18 13 9 8 9 10 9 9 8 7 8 9 9 10 10 10 10 10 10 10 10 10 11 11 10 10 9 9 10 11 14 15 14 14 15 15 14 14 14 13 13 15 16 16 18 19 20 22 20 20 22 22 23 25 26 26 25 27 30 30 30 29 29 29 30
51 50 48 47 47 48 47 44 43 43 41 35 30 30 31 32 34 35 32 30 25 21 18 16 12 8 7 7 7 7 7 7 7 7 9 9 9 9 9 10 10 10 10 9 10 11 10 10 9 9 10 11 13 16 18 19 18 16 14 14 15 14 12 13 15 16 17 20 21 22 24 23 22 22 24 27 29 29 29 29 30 31 31 31 30 30 31 32
46 46 45 40 37 39 42 43 42 41 37 29 22 23 28 31 34 35 32 30 26 19 13 10 9 8 8 8 7 7 7 7 7 7 8 8 8 9 9 10 10 9 9 9 9 9 9 9 9 10 12 13 15 18 19 19 18 16 15 16 14 14 13 15 17 18 20 23 24 24 25 23 23 23 24 26 29 31 31 31 31 31 32 32 32 32 33 36
45 45 42 34 28 28 32 37 39 37 36 32 25 20 25 30 33 35 36 36 32 20 11 8 8 8 8 8 8 8 7 7 7 8 8 8 9 9 9 9 9 9 9 9 10 10 10 9 10 12 13 14 14 15 16 17 17 16 16 15 14 14 15 17 19 21 24 26 27 26 25 25 25 23 25 27 29 32 33 33 33 33 33 33 34 36 38 41
44 40 34 28 26 26 30 35 37 38 38 34 27 24 26 31 37 40 40 39 33 19 12 11 10 9 9 9 9 8 9 9 8 9 8 9 9 9 10 9 9 10 10 11 11 11 10 11 12 13 12 12 13 14 16 16 16 16 15 15 15 17 19 21 21 23 26 27 28 27 27 30 31 29 30 33 34 34 35 35 36 36 36 36 37 40 43 45
35 30 25 24 26 29 34 37 38 39 39 36 33 32 32 33 37 40 39 35 27 17 16 15 12 11 11 12 12 12 12 11 10 11 11 11 11 11 11 11 11 11 11 11 11 12 11 11 11 11 12 14 15 16 16 16 15 15 15 16 18 20 22 23 23 24 25 25 27 27 30 33 35 38 37 36 37 36 36 37 37 38 39 40 41 43 46 48
24 22 23 27 31 34 37 37 36 39 40 38 36 36 38 38 38 39 33 24 17 17 18 15 13 14 15 14 15 13 11 12 14 14 13 12 12 12 12 11 11 11 11 11 11 11 10 10 12 14 16 16 16 16 15 16 16 15 16 18 20 21 21 23 24 25 25 27 28 28 37 42 38 39 38 35 38 37 39 41 40 41 42 44 47 47 49 50
22 21 23 29 32 31 32 30 29 30 28 26 24 25 32 38 39 33 22 14 15 18 17 14 16 17 15 13 13 11 10 13 14 12 12 12 13 12 11 10 10 11 11 10 10 10 11 13 15 15 16 15 15 15 16 17 17 18 19 20 20 20 22 23 24 26 27 28 29 28 38 45 39 39 38 36 39 39 41 46 46 46 46 48 51 50 50 49
22 20 18 19 19 19 22 23 22 20 16 14 13 12 16 22 25 17 11 16 21 19 16 16 17 16 14 13 12 10 10 11 10 11 13 12 11 10 9 10 10 10 9 10 11 11 13 14 14 15 16 16 17 17 18 19 19 20 21 20 21 21 23 24 24 27 29 30 30 28 34 41 39 40 41 37 40 41 43 48 49 48 48 49 50 50 49 47
24 22 16 13 13 14 15 17 17 15 12 11 10 10 9 9 12 10 11 20 23 18 16 17 16 16 15 13 12 10 9 8 9 12 12 10 10 10 9 10 10 11 11 13 12 12 13 14 16 18 17 17 18 20 21 21 20 21 21 21 22 23 25 25 26 28 32 36 34 28 33 43 43 41 44 45 44 44 44 47 48 48 48 49 49 48 47 46
25 22 15 11 12 12 13 13 14 12 11 10 11 12 9 8 14 16 17 22 21 17 16 17 16 14 13 11 10 9 9 9 10 11 11 10 11 10 10 11 11 13 13 13 14 14 15 15 16 16 15 18 20 22 23 21 21 21 21 22 22 24 24 23 27 30 37 43 37 30 34 44 47 42 44 50 48 45 46 46 48 48 48 49 49 49 48 48
15 15 13 12 10 10 11 12 11 10 9 10 11 11 8 11 17 19 23 25 21 17 16 15 14 11 10 9 9 9 9 11 12 12 11 11 11 10 12 12 13 13 12 13 15 15 15 14 15 16 18 22 23 23 22 20 22 21 22 23 23 24 24 27 34 33 41 49 38 33 35 42 51 46 38 44 45 44 46 45 47 49 50 52 52 52 51 51
8 11 13 13 11 10 10 10 10 9 10 10 9 8 8 12 16 19 25 23 18 17 14 11 11 10 9 9 10 10 10 12 13 12 11 11 11 12 12 13 13 12 12 14 14 14 15 15 17 19 21 22 22 23 22 21 22 22 23 24 23 25 24 31 38 34 46 57 41 33 38 44 52 45 36 42 45 46 50 48 47 50 52 55 56 56 56 55
8 9 11 12 12 12 11 11 11 10 10 9 7 7 6 9 15 19 20 16 14 14 11 9 10 9 9 11 12 11 11 13 13 11 11 12 12 13 13 14 14 14 15 15 15 15 16 17 20 21 21 22 22 22 21 21 24 24 25 24 27 35 34 40 49 45 49 53 37 32 42 45 46 40 37 45 50 52 55 54 54 55 57 59 59 60 59 58
18 14 13 11 10 10 10 9 9 7 7 6 6 7 5 7 15 18 16 13 12 11 10 10 10 10 12 13 13 12 11 12 13 12 13 13 14 15 16 17 17 17 18 18 18 17 16 19 23 22 21 22 22 21 21 23 25 25 27 25 29 40 46 57 65 53 44 42 34 35 41 40 39 41 41 46 52 56 58 60 61 61 61 62 62 63 62 61
32 26 20 15 10 8 6 6 6 5 6 6 6 7 6 10 16 16 13 11 10 11 11 10 10 12 14 13 12 12 12 12 14 14 14 15 17 18 19 20 20 19 20 20 21 21 21 22 23 21 22 22 21 22 23 25 26 27 29 29 29 32 38 50 56 49 44 44 38 36 41 41 43 49 50 50 55 59 61 63 63 63 64 64 64 65 64 65
35 30 22 15 10 7 6 5 6 6 6 7 7 7 9 13 15 14 11 11 10 11 10 10 11 13 13 13 13 13 14 15 15 15 15 16 18 20 21 21 20 21 22 21 21 25 25 24 23 22 22 22 22 23 25 26 28 30 31 31 32 33 33 38 44 42 44 52 51 43 43 46 48 55 56 56 59 61 63 65 64 65 66 65 66 65 66 68
31 27 17 10 8 7 6 6 6 7 7 8 8 10 12 13 14 12 11 11 11 10 10 11 12 13 13 13 14 15 16 16 16 16 15 17 20 22 22 21 21 22 22 23 24 27 28 24 23 23 22 23 24 26 28 29 30 33 33 33 35 35 35 38 40 39 43 55 54 42 45 53 56 60 61 60 62 62 63 65 64 66 66 66 67 68 69 71
27 21 10 6 7 6 6 7 7 8 9 9 9 11 13 13 12 12 11 12 11 11 11 12 13 15 15 14 15 16 16 16 17 17 17 19 22 24 22 22 23 23 23 25 26 29 30 26 22 22 24 25 27 28 29 30 32 35 35 35 36 36 40 41 42 49 60 67 58 42 44 54 58 60 60 61 64 63 62 63 64 66 67 68 71 71 72 73
24 15 6 6 7 6 7 8 8 9 9 9 9 11 13 12 11 11 11 11 11 12 13 14 16 16 16 17 17 16 16 16 17 17 18 20 22 23 23 22 24 24 25 26 26 28 32 30 26 25 26 26 28 29 29 30 33 36 37 37 37 38 43 42 43 53 65 75 72 54 44 47 51 56 59 61 63 63 63 64 66 68 69 71 72 72 72 72
19 9 6 7 6 7 8 8 8 9 8 8 9 10 10 10 10 11 11 12 13 14 15 16 17 17 17 18 18 17 17 17 18 19 20 20 22 24 24 24 25 26 26 27 28 29 32 35 32 26 26 27 27 29 31 32 35 38 39 39 38 40 43 42 42 47 56 69 76 68 56 51 51 54 59 62 62 63 67 69 70 72 72 72 72 72 72 71
13 7 6 7 7 9 8 8 8 8 7 7 8 9 9 10 10 11 13 14 15 16 17 17 17 17 18 18 18 18 18 19 20 21 21 22 24 25 26 26 26 27 28 29 30 30 32 36 34 26 24 27 29 31 33 35 38 41 41 41 41 41 42 44 44 43 48 61 76 83 76 59 51 55 60 63 64 68 72 73 74 74 74 74 73 72 72 71
8 6 7 8 9 9 8 7 7 6 6 6 7 9 10 11 12 14 16 16 16 17 17 18 18 18 18 18 19 20 20 21 22 23 23 24 26 27 28 28 28 29 30 29 29 29 31 35 35 29 25 25 28 31 33 36 40 42 42 41 41 42 43 49 55 49 44 52 67 81 78 63 58 63 66 68 71 72 74 75 76 75 74 73 72 72 72 72
7 7 8 8 8 8 7 7 6 5 6 6 8 11 12 14 15 16 17 17 17 18 18 18 18 19 19 20 21 22 22 23 24 25 25 26 28 29 28 29 29 28 27 27 27 26 28 34 36 30 25 26 29 29 31 36 39 39 41 42 43 46 45 50 57 53 49 53 56 63 73 70 65 66 67 69 72 73 75 75 74 74 73 72 72 73 73 71
8 8 9 8 7 6 7 5 5 6 7 9 12 13 14 16 17 17 17 17 17 18 18 18 19 20 21 22 23 24 25 25 26 27 26 27 28 26 25 25 24 23 23 24 24 24 26 32 35 31 25 24 27 30 33 37 39 40 44 45 46 48 48 50 54 53 55 57 51 57 74 72 63 64 66 67 69 72 74 74 74 75 73 72 72 73 71 65
9 9 8 6 5 6 6 5 7 9 11 13 15 16 16 17 17 18 18 18 18 19 19 19 21 22 23 25 26 27 27 26 26 26 26 24 22 21 20 18 18 19 20 21 23 23 26 31 36 40 41 38 37 37 37 38 39 39 42 44 45 49 52 54 54 55 58 58 53 61 73 68 61 64 65 66 70 73 75 75 75 75 74 74 74 71 66 62
9 8 6 5 5 5 6 7 11 13 14 16 16 16 17 17 18 19 19 19 19 20 21 22 23 25 26 27 27 27 27 25 24 23 22 20 18 16 15 15 16 17 18 20 23 24 27 30 34 43 52 54 52 47 42 42 41 37 37 41 46 50 53 54 57 60 61 61 58 60 64 62 62 67 71 74 75 74 76 76 75 77 78 75 69 63 62 63
8 6 4 5 5 7 9 12 14 15 15 16 16 17 18 19 20 20 20 21 21 22 23 24 25 27 27 26 25 24 23 22 21 21 20 18 17 15 15 16 17 18 20 23 25 28 30 30 33 39 42 45 47 43 41 44 44 40 40 45 48 51 53 54 59 61 60 63 64 58 57 60 64 69 74 76 75 76 78 78 78 77 71 63 60 63 65 63
5 4 4 6 8 11 13 14 16 16 16 17 18 19 20 21 21 21 21 22 23 24 25 26 28 27 24 22 21 21 21 20 21 21 19 18 16 17 18 20 21 23 25 26 28 31 33 32 35 37 35 38 41 38 38 43 43 43 48 50 51 55 57 57 60 61 62 70 69 60 61 67 68 71 75 75 77 81 81 79 74 67 62 63 66 69 65 58
4 6 8 10 12 14 15 16 17 17 18 20 20 21 22 23 23 23 23 24 25 26 26 28 28 24 21 21 20 21 21 21 21 20 18 18 19 21 22 23 26 28 29 30 31 33 36 37 38 37 34 35 37 37 38 41 43 46 51 53 54 57 59 59 61 62 65 70 69 64 68 71 70 74 78 79 81 81 76 70 65 61 63 66 63 59 55 53
8 11 13 14 15 16 17 17 18 19 20 21 22 22 23 25 24 24 25 25 26 27 27 28 25 22 20 21 21 21 21 21 21 20 19 21 24 26 27 27 30 31 32 33 32 35 40 41 40 40 37 34 36 39 39 42 46 49 51 54 55 54 56 58 61 63 64 63 62 64 67 69 72 78 80 80 78 74 68 62 59 57 55 52 51 53 54 52
13 14 15 16 17 17 18 19 19 20 21 21 22 22 23 25 25 25 25 26 26 27 27 26 24 21 21 21 21 22 22 22 22 22 23 25 27 30 31 32 34 34 34 35 34 37 41 41 41 43 39 37 39 40 41 46 46 44 48 51 48 46 52 56 57 58 57 54 55 63 69 70 73 75 73 71 67 62 61 58 53 50 49 50 54 56 53 46
15 16 16 18 18 18 19 20 20 21 21 21 22 22 23 25 25 24 25 25 25 25 24 24 22 21 22 22 22 23 23 23 23 23 26 29 32 34 35 36 36 36 36 37 37 39 40 41 42 44 44 42 40 42 45 41 32 31 39 40 37 42 50 52 50 51 53 53 55 62 65 63 62 61 59 59 60 60 61 57 52 51 54 58 57 52 44 32
17 17 17 18 18 18 19 20 20 20 19 20 21 21 22 25 24 23 24 24 24 24 22 22 22 22 23 23 23 24 23 23 24 26 31 34 37 39 39 38 38 38 38 39 40 40 41 42 42 46 50 45 41 47 44 30 26 33 36 34 37 45 48 48 50 52 53 53 52 52 53 52 51 51 51 55 60 62 58 53 54 58 61 59 54 45 31 16
Wind_Speed
16 15 15 15 15 15 14 14 13 13 12 11 10 9 8 7 6 5 5 4 3 3 2 2 1 1 1 1 0 1 1 2 3 2 2 3 3 2 1 1 2 3 4 4 4 4 5 6 5 5 6 7 8 8 7 6 6 6 8 9 9 9 10 10 10 11 13 14 15 15 14 14 15 15 14 13 13 13 14 15 16 17 16 14 13 12 12 12
16 16 16 16 15 15 15 14 13 13 12 11 10 9 8 7 6 6 5 4 3 3 2 2 2 1 1 0 1 2 3 3 3 3 3 4 4 3 3 3 3 4 5 5 5 5 5 6 6 5 6 8 9 8 8 7 6 7 8 8 9 9 8 9 10 13 14 15 14 13 13 13 14 14 14 14 13 14 14 14 16 16 14 13 13 12 12 13
15 16 16 15 15 14 14 13 13 12 12 11 10 9 8 7 6 5 5 4 3 3 2 2 2 2 2 1 2 3 4 5 4 4 4 5 5 4 4 4 4 5 5 6 6 6 6 6 6 7 7 8 9 9 8 7 6 7 7 7 8 8 8 10 12 13 13 13 13 12 12 13 13 13 13 14 14 13 13 13 13 13 13 14 14 14 14 15
15 15 15 15 14 13 13 12 12 11 10 10 9 8 7 6 6 5 5 4 4 3 3 3 3 3 3 3 3 4 5 5 5 5 5 6 6 6 5 5 5 5 5 6 5 5 6 6 7 7 7 7 8 8 8 6 5 6 6 7 7 7 8 9 11 12 12 12 11 11 11 11 12 11 11 13 14 12 12 11 12 13 14 16 17 17 17 17
14 14 14 13 13 13 12 11 10 9 8 7 7 6 6 5 5 5 4 4 4 4 4 5 5 5 5 4 3 4 5 4 5 6 6 7 7 7 5 4 4 4 4 5 5 5 6 6 6 6 6 7 7 6 6 5 4 5 6 6 6 6 7 9 10 10 11 10 10 11 11 11 11 10 11 13 13 11 10 11 13 14 16 18 20 20 20 19
12 12 12 12 11 11 10 9 8 7 6 5 5 5 4 4 4 4 4 4 4 5 5 6 6 7 7 6 4 4 5 5 6 7 7 8 8 7 5 4 4 4 3 4 5 5 5 5 5 6 6 7 6 5 5 4 4 4 5 5 5 6 7 8 9 9 9 9 9 10 10 11 12 11 11 12 10 10 11 13 14 15 17 20 21 21 21 21
9 9 9 9 9 8 8 7 6 5 5 4 3 3 3 3 3 3 3 4 4 5 5 6 7 8 8 7 6 5 6 6 6 7 7 8 8 6 5 4 4 3 3 4 4 5 4 4 5 6 6 6 6 4 4 4 5 5 5 5 6 7 8 8 8 8 8 8 9 10 10 12 13 12 12 9 7 10 13 14 15 16 18 20 21 22 22 21
6 6 6 6 6 6 5 5 4 4 3 2 2 2 2 3 3 4 5 6 6 6 7 7 7 8 9 9 8 7 7 6 7 7 7 7 7 6 5 4 3 3 3 4 4 4 5 5 5 5 5 5 5 5 5 6 5 4 5 6 7 8 8 8 8 8 8 9 9 10 10 12 14 12 10 8 8 11 13 14 16 18 19 20 20 21 21 21
5 4 4 3 3 3 3 2 2 2 2 1 1 2 3 4 5 5 6 7 8 8 8 9 9 9 9 9 8 8 8 8 8 8 8 7 6 5 4 3 3 3 3 4 4 5 5 5 5 5 5 5 5 5 6 6 6 5 6 7 7 9 9 7 8 9 9 9 10 10 10 13 12 9 9 9 10 12 14 16 17 18 19 19 19 19 20 20
4 3 2 2 2 2 1 1 2 1 0 1 2 3 4 5 6 6 7 8 9 10 10 10 10 10 10 10 9 8 9 9 8 8 8 8 7 5 3 3 3 4 4 5 5 5 5 5 4 4 5 5 5 6 7 6 6 6 8 8 8 9 8 7 8 9 10 11 12 11 11 13 10 8 10 10 11 13 17 19 18 17 18 17 17 18 19 19
3 3 2 2 2 2 2 2 3 2 2 2 3 4 6 7 7 7 8 8 9 10 11 12 11 11 11 11 10 9 8 8 8 7 7 7 6 4 4 3 4 4 5 5 6 6 5 5 4 4 5 5 6 7 6 6 7 8 9 9 9 9 8 8 8 9 11 13 13 12 13 12 9 10 13 11 12 16 20 20 19 19 18 16 16 17 18 19
4 4 4 3 3 3 3 3 3 3 3 4 5 6 7 8 8 8 9 9 10 11 12 13 12 11 11 11 10 9 8 7 7 7 8 6 5 4 4 4 4 5 6 6 6 5 5 5 4 4 5 5 7 7 6 7 8 10 10 10 9 9 9 10 9 10 12 14 14 14 13 11 10 13 13 12 16 19 20 21 22 20 17 15 15 16 18 18
4 5 5 5 5 5 4 4 4 4 5 6 7 8 9 9 9 9 9 10 11 13 13 14 13 12 12 10 9 8 7 7 7 7 8 6 5 5 4 5 4 5 6 7 6 5 5 5 5 5 5 6 7 7 7 8 9 10 11 10 10 11 11 11 11 13 14 14 14 15 14 11 13 15 13 15 20 19 21 23 22 20 17 15 15 17 17 16
3 4 5 6 7 7 7 7 7 7 8 9 9 10 10 10 10 10 10 11 12 14 14 15 14 13 12 11 10 8 8 7 7 7 7 6 5 5 5 6 5 5 6 6 6 6 5 5 5 5 6 7 7 8 9 9 10 11 11 11 12 12 12 13 14 15 15 15 16 16 16 12 12 15 15 19 22 20 21 23 22 19 16 15 15 17 17 16
3 3 4 5 6 8 8 9 10 10 10 10 11 11 11 11 11 11 11 12 13 15 15 15 14 13 12 11 10 9 8 8 7 7 7 6 5 5 5 6 6 7 7 6 6 7 6 6 6 7 7 8 9 9 10 11 12 11 11 11 13 14 15 16 16 15 15 17 18 17 16 13 12 16 18 22 23 22 23 22 20 18 16 16 16 17 16 15
3 3 4 5 6 7 8 9 10 11 11 12 12 12 12 11 11 12 12 13 14 15 15 15 14 12 12 11 10 9 7 7 7 7 6 6 5 5 6 6 6 7 8 6 6 7 7 7 7 8 9 10 10 10 11 13 12 11 12 14 15 17 18 18 16 16 16 18 19 18 18 16 14 16 20 24 25 23 23 21 19 17 18 18 17 16 15 14
3 3 4 5 5 6 7 9 10 11 12 12 12 12 12 11 11 13 14 14 14 15 15 15 14 12 11 10 9 8 6 6 7 6 6 6 5 6 7 7 7 7 7 7 6 8 9 9 9 10 11 11 11 11 12 12 11 12 15 17 17 18 19 20 19 18 19 19 19 20 21 16 13 17 23 26 26 24 22 21 19 18 19 18 16 15 14 13
3 4 5 5 6 7 7 8 9 10 12 13 13 13 13 12 13 14 15 14 14 14 14 14 13 11 9 8 7 6 6 6 7 6 6 6 6 7 7 8 8 8 7 7 8 9 10 11 11 12 13 13 13 13 13 13 13 15 17 19 19 19 20 21 21 21 21 21 20 20 20 16 13 18 25 28 27 23 22 22 21 19 18 16 15 15 14 14
4 5 5 6 7 7 8 8 9 10 11 13 13 13 13 13 14 15 14 13 13 14 13 12 12 11 10 9 8 8 7 7 8 8 7 7 7 7 8 9 9 8 9 9 10 11 12 13 14 14 14 14 14 14 15 15 16 18 19 20 20 21 23 22 21 22 22 22 19 17 18 17 17 20 25 29 27 23 22 22 21 19 17 16 15 15 15 14
4 4 5 6 7 8 9 9 10 11 12 12 12 12 12 12 13 13 12 12 13 13 13 13 12 12 11 10 10 10 9 8 9 9 8 8 8 9 9 10 10 9 10 11 11 12 14 16 16 15 15 15 15 15 15 17 18 21 21 20 20 24 26 22 21 22 20 20 18 16 18 19 22 23 22 25 26 23 22 20 19 17 16 16 16 16 15 14
5 5 6 6 7 8 8 10 10 11 12 12 11 11 11 11 12 12 11 11 12 13 13 13 12 11 11 10 10 10 9 9 9 10 10 9 9 10 10 11 11 11 12 13 14 14 16 18 17 15 14 14 14 15 17 19 20 21 20 21 23 25 25 22 20 19 17 18 18 18 20 21 24 24 21 22 24 22 20 19 18 17 17 17 16 16 15 14
6 6 6 7 8 8 8 9 10 11 12 12 12 11 11 10 10 11 12 13 14 14 14 12 11 11 10 9 9 9 9 8 9 11 10 10 10 11 12 12 13 13 14 14 15 15 16 16 15 13 14 15 16 17 19 20 20 20 20 23 24 23 22 20 17 16 17 19 20 20 22 22 25 25 20 18 19 18 18 17 17 17 17 17 17 16 16 15
5 6 7 8 8 8 8 9 10 11 12 12 12 11 11 10 10 11 13 15 15 14 12 9 8 9 8 8 8 8 8 8 9 10 10 10 11 11 13 13 14 15 15 15 16 16 16 15 14 16 16 17 17 17 18 19 19 20 21 23 21 19 18 17 17 17 18 20 22 22 21 21 21 19 12 11 15 17 18 18 18 17 17 18 18 17 16 15
5 6 7 7 8 8 9 9 10 11 11 11 11 11 11 10 11 12 14 16 14 11 8 6 5 5 5 6 6 6 7 8 9 9 9 10 11 11 12 13 14 14 15 16 16 16 17 17 18 17 16 15 15 15 17 19 20 20 19 19 18 15 15 17 19 19 20 21 20 18 15 13 11 8 8 15 17 19 20 20 20 19 19 19 19 18 16 15
4 5 5 6 7 7 8 8 9 9 10 10 9 10 10 11 12 12 15 15 10 7 6 5 4 3 3 4 4 6 8 8 8 8 9 10 11 11 12 13 14 15 16 16 16 17 17 16 16 15 14 15 15 16 17 19 20 18 16 15 15 15 16 17 18 20 21 18 14 12 8 4 5 8 13 17 20 21 20 21 21 21 21 20 19 18 16 16
4 5 6 6 5 6 6 7 8 8 8 9 8 9 9 11 12 12 15 11 4 5 6 4 4 3 3 4 5 8 9 8 9 10 10 11 11 12 12 14 15 15 15 16 15 15 14 13 14 15 15 15 15 15 16 17 18 17 14 13 14 16 17 18 19 19 17 14 14 16 11 6 8 11 16 19 21 22 22 21 22 22 22 21 20 18 17 17
5 5 7 6 5 5 5 6 7 8 9 10 11 12 10 10 11 12 11 5 2 6 7 7 7 4 4 6 9 12 11 10 12 12 10 10 11 12 13 13 12 13 14 14 13 12 13 14 14 15 14 13 14 15 15 15 16 15 13 14 17 18 18 19 20 19 20 21 22 21 15 11 11 14 18 21 23 24 24 23 23 24 23 22 21 20 19 19
4 5 6 5 5 5 5 6 7 9 10 12 14 15 14 13 11 10 6 2 4 8 7 8 8 5 8 11 14 16 14 13 11 9 10 10 11 11 11 11 13 13 13 13 14 13 13 13 13 13 13 14 15 14 14 14 13 12 15 18 19 18 19 21 22 23 22 19 18 15 10 8 8 14 20 22 24 25 25 25 25 25 25 23 23 22 21 21
4 4 5 5 5 5 6 6 7 9 10 13 16 16 16 14 10 8 3 1 7 10 7 8 8 9 12 13 15 16 14 12 8 8 10 10 10 12 12 13 13 12 12 13 12 11 12 13 13 14 14 14 13 12 13 11 11 15 18 18 18 19 23 24 22 19 14 9 12 11 8 7 4 13 22 23 26 28 27 26 26 27 26 25 24 23 23 22
4 4 5 5 5 6 7 7 8 9 11 15 17 16 16 12 8 6 2 2 9 8 6 9 11 14 14 13 14 13 11 9 7 9 11 11 13 13 13 13 12 12 12 10 9 10 13 14 13 13 11 11 11 11 11 11 15 18 17 18 20 22 22 20 16 12 7 4 6 5 8 10 4 9 19 21 24 27 29 29 28 28 26 25 25 24 24 23
4 4 5 6 6 7 8 9 10 11 13 16 16 16 15 10 6 4 2 5 9 7 8 12 14 16 16 14 12 10 9 8 9 11 12 13 13 13 13 12 11 11 9 7 10 12 13 12 10 9 9 9 10 10 12 16 18 16 16 20 20 17 14 11 9 5 2 3 3 3 4 10 8 8 14 18 21 23 27 29 28 27 25 24 25 24 23 23
6 6 6 7 7 8 9 10 11 13 14 15 14 15 14 8 4 3 3 8 9 8 12 15 15 17 16 13 11 9 9 9 11 13 13 14 13 13 14 12 12 11 9 12 15 13 11 9 7 7 8 10 10 13 17 18 15 15 19 19 13 8 6 4 3 2 3 4 3 1 1 7 13 14 14 17 22 20 22 24 24 24 24 24 24 23 23 23
8 8 8 9 9 9 10 11 12 13 13 13 12 13 12 6 2 3 7 9 9 11 15 16 17 16 13 11 10 10 11 11 12 14 14 14 13 14 13 12 13 13 11 14 16 15 13 8 5 8 10 11 13 18 18 14 14 18 18 12 5 3 3 3 3 2 5 5 3 4 4 6 11 12 12 16 21 20 20 21 21 22 23 24 24 23 24 25
9 10 11 11 10 10 10 10 11 11 11 12 12 11 8 3 2 6 8 9 10 12 14 16 15 14 11 10 10 12 13 12 12 14 14 13 13 12 10 11 13 14 13 13 14 15 11 5 7 12 12 14 17 18 14 14 18 17 11 7 8 5 2 4 4 2 5 6 8 10 7 5 5 6 9 15 19 20 21 21 22 23 23 24 24 24 26 27
10 12 13 12 11 10 10 10 10 11 11 11 10 8 5 3 4 7 9 11 12 13 14 14 13 11 10 10 11 14 14 13 13 14 13 13 12 10 9 12 13 13 13 13 14 13 7 7 12 15 15 16 16 12 12 17 16 10 9 11 12 9 7 8 9 10 10 8 8 8 6 6 7 8 12 15 17 20 20 21 23 23 23 23 24 26 27 29
12 14 14 12 10 9 10 11 12 12 11 10 8 6 5 4 6 8 10 12 13 14 14 13 11 10 10 10 12 14 14 13 13 13 13 12 10 8 10 14 12 11 14 16 16 11 7 11 15 15 15 12 10 12 15 17 12 10 13 14 11 10 11 12 11 12 9 5 4 5 4 5 5 8 14 17 18 21 21 23 24 23 24 24 25 27 28 30
13 14 13 10 9 10 11 12 12 11 10 8 7 6 5 5 7 8 10 12 13 14 14 13 12 11 11 12 13 13 13 13 13 14 13 11 8 9 12 13 11 13 16 17 16 12 12 17 18 14 11 10 13 17 18 16 13 13 13 12 11 9 9 8 6 5 3 2 5 6 6 7 7 7 14 20 21 22 24 24 25 24 24 24 26 28 30 33
13 14 11 10 10 11 11 11 10 10 9 8 7 6 6 7 8 9 11 12 12 13 13 13 12 11 12 14 14 14 13 12 13 13 11 9 9 11 12 11 11 16 18 18 17 15 16 17 15 12 11 14 19 20 18 16 15 14 12 12 10 7 6 5 3 3 3 2 4 4 5 7 8 10 14 19 23 25 26 26 25 25 24 26 28 30 33 37
13 13 11 10 11 11 10 10 9 9 8 8 8 7 8 8 9 10 11 11 12 12 12 11 11 11 12 13 14 14 13 13 14 12 10 10 11 12 11 11 14 18 18 18 17 17 16 12 10 13 17 20 21 19 17 18 17 15 12 10 10 9 9 8 6 4 3 2 3 4 3 3 7 9 11 17 23 26 27 25 23 24 25 28 31 34 38 41
13 12 11 11 11 10 10 10 8 8 8 9 9 8 8 9 9 10 11 12 12 12 11 11 11 12 12 12 13 13 14 14 12 10 10 11 13 13 11 13 17 18 17 18 19 19 17 10 12 19 22 20 19 18 19 19 16 13 10 11 11 11 10 10 11 11 8 4 1 2 4 3 6 8 10 17 22 24 24 22 22 24 28 31 35 39 42 45
12 11 11 11 10 10 10 9 8 9 9 9 9 8 9 9 9 10 11 12 12 11 11 11 11 12 11 11 12 13 14 13 10 10 11 12 13 12 13 16 18 17 18 20 20 19 16 13 18 23 23 21 20 19 19 17 12 9 9 9 8 9 10 9 8 10 10 8 5 4 5 7 10 10 11 18 20 20 21 21 24 28 32 36 41 44 46 48
11 10 10 10 10 10 9 9 9 10 10 10 9 9 9 9 10 10 11 11 11 10 11 10 11 11 11 12 13 13 14 12 9 10 12 12 13 14 16 18 18 19 21 20 19 19 18 16 18 21 22 22 19 14 12 9 7 8 7 7 8 12 14 10 7 9 10 10 11 8 5 8 13 13 15 19 20 21 22 25 28 33 37 42 46 47 49 52
10 10 10 10 11 10 9 9 10 10 10 10 10 9 10 10 10 11 11 11 11 11 11 10 10 11 11 12 12 13 14 11 9 11 13 13 15 17 17 18 20 21 22 20 20 20 17 14 16 21 23 21 14 8 5 4 8 11 11 13 16 18 17 13 14 16 14 11 12 8 4 8 15 17 18 21 23 24 26 30 34 38 43 46 48 50 54 57
9 10 10 11 11 9 9 10 10 10 10 10 10 10 10 10 11 11 11 11 11 11 10 10 10 10 11 11 12 12 13 12 11 13 13 15 17 18 19 21 22 22 22 21 19 18 15 13 15 18 17 14 10 7 6 9 15 18 19 20 21 20 19 17 16 15 11 9 9 6 4 9 14 18 20 22 25 28 30 35 40 43 46 49 51 55 57 58
9 9 10 11 10 9 9 10 10 10 10 10 10 10 10 11 11 11 11 11 10 10 10 9 10 10 11 11 11 12 12 13 13 13 15 18 19 20 22 23 23 22 21 19 17 18 17 15 15 12 7 6 7 8 12 18 21 21 20 20 20 19 18 16 14 11 8 8 10 11 13 19 22 23 23 25 28 32 36 41 43 45 48 52 55 56 56 57
9 9 10 10 8 8 10 11 10 11 10 10 10 10 11 11 11 11 10 10 10 10 10 9 10 11 11 12 12 12 14 15 15 15 18 20 21 23 23 22 22 21 19 17 19 19 18 18 17 14 12 13 14 15 17 20 22 21 19 16 15 15 16 14 13 13 12 14 18 20 21 24 26 25 27 30 35 38 40 42 44 47 51 53 55 55 55 58
9 8 9 9 8 9 11 11 11 11 11 11 11 11 11 11 11 11 10 10 10 10 10 10 11 11 12 13 13 14 16 17 17 19 21 21 22 23 22 22 22 19 18 20 20 18 18 19 17 15 16 17 17 19 18 17 19 20 18 16 14 14 15 15 13 15 15 15 18 21 21 23 27 30 33 37 39 40 42 45 48 51 52 53 54 56 59 62
9 8 9 9 9 9 11 11 10 11 11 11 10 10 11 11 11 11 10 10 11 11 11 11 11 12 13 14 16 17 18 19 19 20 21 22 23 23 22 23 21 19 20 21 20 18 18 18 16 16 18 19 19 19 15 14 17 19 19 19 17 15 15 13 13 15 16 16 19 25 28 30 34 36 37 39 40 43 47 49 50 50 51 54 57 59 60 60
9 9 9 10 10 10 10 10 10 11 11 11 11 12 12 12 13 13 12 12 12 12 12 11 11 12 13 15 17 18 20 21 21 21 23 24 24 24 24 22 20 21 22 19 18 18 16 16 16 17 20 22 18 15 15 17 19 21 22 21 18 15 14 13 13 15 17 21 25 29 33 35 36 36 38 40 43 46 48 47 48 51 54 57 57 57 57 54
9 9 10 10 10 10 10 10 10 11 12 13 13 13 14 14 14 14 13 12 12 12 12 12 12 13 14 15 18 19 21 21 21 22 24 25 25 25 24 21 20 20 19 17 17 17 15 16 17 17 22 23 18 16 18 18 19 22 21 17 15 15 14 14 16 19 22 27 30 32 35 37 37 38 41 43 44 45 45 48 52 56 57 56 55 54 52 49
9 9 10 9 10 10 10 11 11 12 13 14 14 14 14 14 14 14 13 12 12 13 12 12 12 13 15 17 19 21 22 22 21 23 26 26 25 23 21 21 20 17 16 16 16 16 16 17 17 18 21 22 20 20 19 18 18 17 13 12 15 16 15 16 18 22 26 30 34 36 38 39 41 42 43 43 42 44 48 53 56 56 55 55 53 51 49 47
10 9 10 9 10 11 11 12 12 12 13 14 14 14 14 14 14 14 13 13 13 13 13 13 14 15 17 18 21 23 23 22 23 25 26 25 22 20 18 18 16 15 16 16 16 17 16 16 18 17 18 22 23 20 19 18 13 8 9 15 17 16 16 18 20 23 27 31 35 38 40 41 42 41 41 42 44 48 53 55 55 54 53 52 50 48 47 46
Wind_Direction
113 113 112 112 112 112 112 111 111 111 110 110 107 105 103 99 94 88 81 73 63 57 51 49 65 79 99 128 169 247 256 251 253 237 228 250 239 221 233 266 288 295 298 292 283 272 260 257 253 254 255 252 244 236 232 218 207 224 231 227 225 233 239 234 234 245 260 276 288 296 297 297 297 297 296 295 292 289 290 291 288 289 295 300 298 295 294 292
109 109 109 108 109 110 111 112 112 112 112 110 107 104 101 96 91 86 80 70 62 48 24 10 5 352 331 263 241 263 262 253 253 248 239 244 241 238 247 267 283 288 291 283 272 264 257 257 255 253 252 249 241 235 230 215 210 227 232 233 238 247 251 243 242 252 266 279 287 292 292 292 292 293 294 293 290 288 290 289 287 293 298 296 296 298 298 295
107 108 107 107 107 108 110 112 113 113 112 110 107 103 98 93 87 80 74 65 57 45 20 356 337 312 296 274 249 255 263 260 254 249 241 237 240 242 246 261 277 284 284 278 270 266 264 262 260 252 245 241 234 230 225 216 219 228 234 243 247 252 256 257 259 264 273 280 286 290 289 290 290 291 292 289 286 286 286 284 288 295 297 297 300 301 300 298
109 109 108 108 108 108 109 110 110 110 109 107 103 100 95 89 82 73 63 51 40 29 9 351 334 316 302 278 254 250 259 259 252 253 246 239 239 238 244 262 280 287 281 277 271 268 268 264 258 252 247 242 232 228 224 221 231 230 239 250 251 254 255 260 265 271 277 282 288 290 291 290 287 290 288 284 285 283 281 283 289 293 294 298 301 302 301 299
116 116 114 112 111 110 110 109 109 108 108 108 104 101 96 86 76 64 51 36 22 11 355 342 331 322 311 293 273 255 259 261 251 255 254 249 245 242 251 273 288 286 276 275 272 268 266 265 265 264 267 261 247 238 236 234 237 238 249 254 253 257 260 266 272 277 282 285 289 293 296 291 289 295 290 287 286 279 280 286 291 293 294 297 300 302 301 299
121 122 122 120 117 114 112 111 112 114 113 112 111 107 99 83 66 50 36 19 4 353 340 332 323 316 307 294 285 266 268 275 265 262 264 262 255 253 263 281 286 274 263 271 272 270 267 271 278 276 274 269 256 248 256 257 252 256 256 254 260 269 276 280 281 282 282 286 292 299 299 294 297 301 296 293 282 274 285 291 293 295 297 299 301 301 299 296
125 125 126 126 122 117 114 112 115 119 120 116 111 97 84 66 42 23 5 351 341 332 323 318 313 308 300 290 285 280 277 275 268 266 267 262 255 255 266 277 274 259 256 267 270 274 273 271 271 266 263 267 265 266 280 279 277 271 253 257 274 278 283 285 284 281 278 287 296 301 300 298 303 305 302 295 274 280 292 294 298 301 302 303 302 300 298 295
129 121 120 127 128 123 117 115 115 116 118 112 93 58 37 21 12 4 351 341 332 324 316 309 305 300 294 289 286 284 281 273 268 267 261 254 247 254 264 267 258 248 253 265 271 275 274 270 266 264 267 275 278 281 289 287 284 270 258 275 280 279 282 281 279 275 274 286 297 301 303 304 306 306 302 291 281 290 294 297 302 305 306 305 303 301 299 297
139 130 116 121 133 138 134 131 125 117 109 77 24 4 359 356 355 354 348 340 331 325 319 312 308 301 294 291 287 283 279 273 270 267 259 253 252 258 263 260 259 259 264 271 278 276 271 268 268 272 276 278 275 280 289 286 281 271 275 281 272 274 277 274 276 270 269 286 299 299 304 308 304 302 302 292 292 298 299 301 305 306 307 305 301 299 298 297
153 159 156 150 155 175 196 203 175 155 149 339 341 340 342 343 342 341 336 329 323 318 315 313 312 307 300 294 288 283 280 274 271 267 262 262 263 271 280 283 281 280 279 281 282 277 271 267 270 274 275 274 272 284 289 277 276 279 280 276 268 272 270 275 281 268 269 290 299 295 302 308 296 298 307 298 299 307 307 306 307 308 306 302 297 295 294 295
188 192 203 213 216 216 235 229 215 218 246 281 307 319 326 328 329 327 323 320 318 315 311 310 310 307 301 296 291 286 281 276 273 268 264 266 272 283 293 288 280 275 273 275 277 274 272 269 270 270 271 273 277 287 284 269 278 283 281 276 272 267 262 279 284 269 277 292 296 295 302 303 292 303 309 299 302 308 309 306 307 309 305 297 290 288 290 294
234 235 234 238 237 232 227 222 227 238 254 279 295 306 314 317 320 319 318 319 321 319 314 311 308 303 298 295 292 289 284 280 277 272 266 268 276 279 274 270 268 268 264 263 268 269 270 269 269 272 273 277 283 284 277 276 285 286 282 276 273 267 262 277 283 281 290 293 295 300 304 300 301 312 308 302 309 310 307 304 305 309 305 295 285 282 286 291
251 252 251 250 250 247 241 237 244 254 269 282 290 297 303 307 310 313 316 318 320 319 317 316 310 302 296 292 289 287 284 283 279 273 270 273 278 276 275 272 267 267 262 259 262 264 265 265 269 271 274 282 282 280 279 282 288 288 281 272 272 272 270 279 287 293 297 295 297 301 300 299 306 312 305 307 316 313 303 301 304 308 304 293 282 281 284 285
267 267 266 263 262 260 258 259 262 269 277 282 285 288 291 296 300 306 313 316 318 318 318 319 313 304 297 292 287 283 282 281 277 273 274 278 278 277 276 272 269 268 262 258 261 262 261 264 270 270 275 283 282 281 280 280 288 288 278 271 271 269 274 287 293 297 296 293 297 297 293 295 305 306 302 309 319 313 301 300 303 304 300 290 280 280 282 278
296 287 281 276 273 270 267 268 268 272 276 278 280 280 283 288 294 302 310 314 316 317 317 316 312 305 297 291 285 281 280 278 276 274 274 278 280 283 279 273 275 272 265 260 261 264 264 265 269 270 276 283 283 283 276 277 287 282 271 276 278 274 281 293 296 297 295 293 297 294 289 297 304 300 299 308 315 311 300 299 300 295 288 283 276 275 275 272
314 306 301 293 286 281 278 275 273 274 277 278 277 276 279 285 294 302 307 311 313 314 313 312 310 305 295 287 283 279 276 274 275 273 274 279 282 285 282 278 274 269 264 261 264 268 265 265 269 271 279 285 284 283 277 278 284 278 277 285 285 284 290 296 298 298 295 292 294 290 286 296 305 297 297 305 312 309 301 296 291 280 275 274 272 271 269 265
318 321 320 317 313 305 297 290 286 284 284 285 283 278 279 286 296 303 307 309 310 309 309 309 309 305 294 285 279 272 267 269 272 275 278 276 275 274 271 270 266 263 261 260 266 268 265 269 273 274 280 283 282 281 275 276 284 287 291 291 288 290 292 296 301 300 295 291 292 289 288 297 305 297 297 303 307 305 296 290 282 272 269 270 267 264 259 255
318 325 327 328 327 322 315 307 301 296 293 292 291 286 283 288 296 302 305 306 306 307 307 307 307 303 295 283 273 267 266 267 271 276 276 272 271 267 263 264 265 266 268 267 268 267 266 272 276 275 278 279 279 276 270 276 289 295 297 293 291 291 291 297 301 298 295 293 292 291 291 301 307 298 299 303 304 299 290 287 281 270 264 263 259 254 248 244
310 320 325 326 325 323 322 319 316 311 303 298 296 294 291 291 295 298 302 305 305 306 305 301 298 295 289 278 269 264 262 264 271 274 271 269 269 268 268 267 265 265 265 266 266 265 267 270 273 275 277 280 279 275 274 281 289 294 296 293 292 293 293 299 299 295 296 294 293 293 295 306 308 299 300 302 300 294 288 284 276 265 259 256 252 244 238 236
301 307 313 317 317 316 316 318 320 318 313 307 302 300 298 296 295 295 297 301 305 306 302 296 291 288 285 278 269 262 258 261 268 270 268 268 269 272 274 270 266 264 264 267 268 269 271 272 275 278 280 280 277 275 279 284 288 293 295 292 294 296 298 302 297 294 297 293 295 299 300 307 304 296 296 295 290 285 280 275 265 254 251 251 247 240 235 233
305 306 309 313 316 314 309 312 315 316 317 315 311 306 300 298 298 296 293 297 307 309 301 293 286 283 281 277 271 265 262 261 265 268 268 268 270 273 274 272 271 272 273 275 276 275 275 277 281 283 280 277 276 278 281 284 289 292 293 294 297 299 301 302 298 297 297 293 297 301 302 305 298 291 290 284 278 272 267 262 253 247 245 245 242 238 235 234
308 311 315 322 326 321 315 314 314 316 317 317 315 308 301 302 305 305 302 301 308 310 302 293 285 280 278 276 275 272 270 268 267 269 270 268 271 274 275 275 276 277 278 279 280 280 280 283 285 282 279 281 283 284 284 286 288 291 294 297 300 302 303 302 301 303 302 298 299 301 303 301 293 291 291 275 261 252 245 243 243 244 245 240 235 233 232 233
319 323 326 329 328 325 323 322 320 319 317 315 313 307 304 305 309 313 309 304 306 308 304 297 288 285 284 280 279 283 281 276 271 271 273 272 271 272 274 277 279 281 283 283 284 283 284 287 286 285 287 287 287 286 286 287 289 294 298 300 302 305 305 302 304 304 301 299 298 301 303 295 290 294 281 234 227 229 226 227 231 234 237 236 233 231 230 232
322 327 329 329 325 324 326 325 323 320 315 313 311 310 309 308 312 313 308 305 308 309 306 309 307 299 303 298 291 298 297 290 283 278 276 274 274 275 277 281 282 284 286 286 286 285 287 289 289 291 291 289 289 289 290 292 295 299 302 303 304 307 305 303 306 305 302 300 297 300 300 283 279 275 212 193 204 217 221 225 228 229 232 235 235 232 231 233
335 344 345 337 329 329 333 333 330 325 320 320 321 322 320 315 314 310 309 310 310 319 321 325 334 324 329 330 316 316 315 305 299 294 290 285 283 285 286 287 288 288 288 286 287 289 290 292 293 295 293 293 294 293 295 298 302 307 309 307 307 309 309 307 307 306 304 302 295 301 308 265 234 219 202 198 204 211 217 222 225 227 230 231 232 231 231 233
29 21 7 359 353 351 355 354 351 349 346 346 346 341 330 316 310 308 316 316 308 352 354 349 349 343 346 358 346 331 325 319 316 309 302 296 292 292 292 292 292 291 291 291 293 295 297 298 297 296 295 296 297 297 302 304 308 314 315 313 314 313 311 308 306 303 298 292 287 291 286 245 230 222 211 208 210 213 213 215 220 224 226 227 228 229 230 232
34 15 3 359 355 355 352 348 352 357 358 1 359 355 343 323 314 314 326 338 340 351 0 356 349 333 328 342 340 337 333 325 320 313 306 302 299 299 299 299 298 298 300 301 300 301 303 301 299 298 297 299 301 304 308 311 314 317 319 321 319 314 310 306 303 297 290 288 290 288 271 246 238 226 221 217 214 215 213 213 218 222 224 227 228 230 231 234
7 357 352 344 340 341 333 332 339 346 352 357 356 355 349 338 332 331 340 46 0 347 347 347 349 336 327 329 329 333 331 325 320 311 309 307 306 309 309 308 307 307 307 303 303 306 307 306 306 305 303 305 306 310 314 317 319 320 324 324 318 314 308 304 300 294 291 291 294 290 253 237 240 219 218 219 216 216 216 215 219 222 225 228 229 232 234 237
323 333 342 341 337 333 329 329 338 344 348 349 349 350 350 347 345 346 10 97 350 349 346 345 347 338 331 327 326 327 327 325 320 314 317 316 317 318 316 315 313 312 310 308 309 313 313 312 310 305 304 306 308 314 318 319 324 325 325 323 317 314 308 304 299 293 292 286 288 288 234 216 246 215 213 215 218 222 221 219 223 225 227 230 232 236 239 243
323 330 340 341 338 336 331 327 335 341 340 341 343 344 347 351 350 358 55 346 341 350 348 342 338 333 331 328 326 327 328 328 324 325 327 325 324 323 322 321 318 317 315 315 320 321 317 314 308 304 304 309 314 321 324 322 323 324 324 322 318 313 307 300 294 289 298 276 270 286 232 222 244 232 227 226 229 232 229 226 228 229 231 235 239 243 246 250
352 341 335 331 333 334 329 324 328 332 331 335 339 339 343 350 356 23 67 330 338 344 334 333 332 331 331 332 334 336 336 331 326 329 329 327 327 326 326 325 324 327 324 328 332 326 324 321 315 313 315 320 324 326 325 321 321 324 325 323 318 314 308 296 284 275 274 264 279 332 244 220 222 253 253 239 235 236 234 236 238 236 237 241 245 249 253 258
11 350 331 325 325 322 317 318 321 323 327 332 334 336 340 342 355 30 350 325 331 332 328 330 332 333 334 336 341 343 340 333 330 332 331 332 333 330 333 336 343 349 341 336 338 336 338 335 326 327 326 326 325 322 322 321 324 327 324 322 320 321 328 304 270 236 230 250 279 343 170 215 237 260 264 236 228 233 233 237 241 240 241 244 249 255 260 267
16 359 346 336 327 317 314 316 320 322 327 331 331 333 336 335 340 342 332 327 326 327 330 331 333 336 338 341 343 343 340 334 334 337 337 338 337 337 344 350 353 356 348 342 345 346 348 346 339 337 328 323 321 320 323 325 328 324 320 323 325 336 355 303 272 283 278 263 257 271 268 259 258 263 260 232 224 226 224 224 231 235 240 247 253 262 269 276
5 356 350 344 334 324 321 321 324 328 329 329 331 332 334 336 329 326 328 329 327 330 334 334 336 339 341 343 344 343 343 340 340 341 339 340 339 342 352 355 352 354 353 352 350 346 343 332 333 334 324 318 319 320 324 325 324 320 314 315 304 287 244 256 259 262 285 286 285 280 271 264 262 245 236 225 217 217 217 221 229 236 243 251 259 268 276 284
352 349 346 343 337 331 330 330 331 332 331 331 333 338 348 0 339 332 333 333 332 336 339 338 339 342 343 343 345 346 347 344 341 339 338 340 343 349 355 352 351 355 357 355 349 343 325 306 325 325 316 315 316 317 321 323 323 314 304 305 296 281 258 261 273 275 283 303 295 265 243 254 259 233 220 220 219 219 221 228 234 240 248 256 266 275 283 291
344 344 343 341 341 339 337 336 336 336 336 339 342 350 7 8 346 338 338 337 335 338 342 343 343 343 343 343 346 348 346 343 340 339 340 344 351 358 352 349 353 357 354 350 347 341 307 309 323 322 316 315 315 317 320 322 321 305 302 302 294 287 279 272 280 283 284 305 285 236 218 237 235 222 220 220 223 225 227 234 240 246 254 262 272 281 290 299
342 343 343 346 347 344 341 339 339 340 341 348 355 3 11 1 347 342 340 340 339 340 345 347 345 345 343 342 346 347 345 344 344 343 346 352 358 356 349 350 355 350 346 345 344 336 313 314 325 328 321 319 321 320 321 324 322 311 303 301 298 294 283 268 277 307 316 292 265 242 226 220 208 220 227 222 224 229 233 238 243 250 259 269 280 288 297 304
342 344 347 350 347 343 343 343 343 345 347 354 3 11 8 356 349 347 344 343 342 343 347 348 346 344 343 342 344 347 348 348 347 349 357 2 356 350 348 350 349 343 341 341 339 335 323 316 322 332 325 322 323 321 322 325 323 316 305 299 298 292 286 276 266 309 324 299 284 257 243 245 241 243 234 227 230 234 236 241 246 255 266 277 287 294 300 305
341 345 348 347 346 344 345 345 346 351 356 1 9 12 4 356 352 349 347 346 345 345 347 350 348 345 345 344 345 350 354 353 352 357 4 2 352 347 348 348 342 338 336 337 334 332 327 312 306 321 322 320 321 319 319 320 319 317 308 298 297 288 287 283 264 266 275 282 299 288 281 239 235 251 245 235 235 235 238 244 253 265 277 286 294 300 304 309
341 345 346 346 347 347 347 347 352 1 4 7 12 9 2 358 354 351 349 347 346 347 350 351 349 348 350 349 350 354 355 355 358 2 1 357 352 348 346 341 337 334 333 334 332 330 328 308 291 311 320 320 320 318 316 316 315 312 303 300 300 294 292 287 274 271 266 252 238 293 296 239 245 279 260 236 235 235 239 250 265 278 289 296 301 306 309 312
342 344 346 347 349 348 349 354 1 3 5 11 14 8 3 1 356 354 351 348 348 351 353 352 351 354 358 357 357 356 355 356 3 2 356 353 351 345 338 336 335 335 334 333 331 329 326 305 292 306 319 323 322 319 313 311 314 312 303 300 300 304 307 296 277 269 261 254 251 267 289 278 276 279 244 229 234 240 249 264 279 290 297 302 307 310 312 314
343 345 348 350 349 351 355 0 3 4 10 16 14 9 4 0 357 356 354 353 355 357 357 357 359 1 2 1 359 357 355 357 2 358 352 350 347 340 336 337 336 334 332 330 329 327 323 310 299 307 320 325 326 325 317 314 328 329 310 292 295 307 305 287 270 281 276 268 269 272 281 274 267 258 239 237 242 250 264 276 286 295 301 306 310 312 314 315
345 347 351 352 351 355 1 3 5 10 14 13 10 8 5 2 1 1 1 2 2 1 3 5 6 6 4 2 0 357 356 357 356 354 352 350 347 341 337 336 333 331 331 329 328 328 325 315 307 312 320 324 329 340 336 325 329 321 304 296 299 305 307 294 282 285 284 274 272 275 271 255 256 261 262 259 259 264 275 284 292 300 305 308 311 313 314 314
348 350 351 352 353 0 5 6 11 15 13 11 10 9 8 7 8 7 7 8 7 7 10 11 10 7 4 3 0 357 358 358 354 354 354 349 344 340 337 334 332 331 331 329 327 328 324 314 311 316 323 330 340 349 333 318 318 312 304 304 306 307 309 305 291 285 281 274 266 253 254 270 275 281 280 274 273 277 284 292 299 305 308 311 312 312 313 313
350 351 351 352 357 5 7 9 13 14 13 15 16 14 14 14 12 11 11 12 11 12 13 12 9 5 3 3 1 359 1 358 354 353 349 345 342 339 336 334 331 330 329 327 326 326 321 315 314 311 304 308 311 311 313 311 309 309 310 312 313 313 314 310 297 282 275 279 271 261 272 287 291 291 288 283 283 287 293 299 303 307 309 310 310 310 311 310
352 353 355 356 1 7 9 12 15 16 20 22 21 20 19 17 14 13 14 15 14 13 11 8 6 4 3 3 1 2 1 356 352 349 345 342 341 338 335 333 331 329 329 327 327 326 322 319 318 309 293 292 298 308 315 310 305 309 316 318 314 313 316 314 298 285 287 290 287 285 287 288 289 289 288 289 290 294 298 301 304 307 308 309 309 310 310 310
356 360 4 8 12 11 12 18 20 22 27 28 25 24 21 18 16 14 15 15 13 11 8 5 4 4 3 3 1 0 358 353 347 344 342 340 338 336 333 333 331 331 331 330 329 328 323 320 321 318 311 310 313 318 318 309 303 309 315 313 308 306 310 310 301 298 301 295 292 299 300 291 290 291 290 293 297 300 303 305 308 310 311 311 311 310 310 310
7 11 14 17 21 20 21 25 27 29 31 29 27 25 22 18 16 16 16 14 11 10 7 3 3 3 2 2 360 356 352 346 342 340 339 338 338 336 333 332 332 332 332 331 330 329 324 321 323 322 320 322 323 322 319 310 308 311 310 307 306 306 308 307 303 301 298 291 294 301 299 294 296 297 298 301 304 305 308 310 312 313 312 310 309 308 309 309
16 17 20 23 28 30 30 31 30 32 31 27 25 24 21 19 17 16 15 12 8 7 5 1 359 359 358 357 354 351 346 342 338 337 338 338 337 335 333 331 331 331 330 330 332 331 325 321 324 322 320 326 332 329 323 319 316 312 308 308 316 323 323 318 314 310 305 303 304 303 299 299 301 301 302 305 307 308 310 311 312 311 310 308 308 309 310 310
23 26 29 31 33 34 33 32 32 32 28 25 24 22 19 17 16 13 11 8 5 3 0 357 353 351 351 349 347 345 343 339 336 336 337 336 334 332 331 330 329 329 331 333 333 332 327 323 325 322 320 329 340 333 324 323 317 309 306 312 329 337 336 333 329 325 320 316 313 307 303 303 305 304 306 307 308 310 311 311 311 311 310 311 312 313 313 314
31 33 35 36 35 36 34 31 30 29 25 22 21 19 16 14 12 9 7 4 1 358 354 350 347 344 342 341 341 341 339 336 333 333 332 330 329 329 328 327 329 331 334 336 333 332 330 324 326 324 319 327 337 331 326 325 316 305 304 322 336 341 341 339 337 332 325 320 316 311 308 309 310 309 310 310 311 311 311 311 312 313 314 315 316 316 316 317
39 39 39 38 37 37 34 29 26 23 19 18 18 17 14 12 9 5 3 1 357 355 353 348 343 340 338 338 338 338 336 332 329 328 328 326 326 328 327 327 331 334 336 338 336 335 332 326 328 327 318 323 332 330 327 328 318 298 313 330 335 340 339 336 334 330 324 318 315 313 312 313 313 313 314 314 313 313 312 313 315 316 317 318 317 318 319 319